sat.trackr.live / text

‹ back to catalog

UNKNOWN

NORAD 87426

UNKNOWN UNKNOWN UNKNOWN

§ Identity

Operator
Country
Launch date
Launch site
Launch vehicle
Mass (kg)
RCS (m²)

External: N2YO · Heavens-Above

§ Orbital elements

Epoch: 2026-09-18T02:47:07.236672Z

Period
100.57 min
Inclination
65.7824°
Eccentricity
0.0056055
Mean motion
14.31903938 rev/d
Perigee alt
745.2 km
Apogee alt
825.5 km
Semi-major
7,163.5 km
B*
8.5497e-4
RAAN
295.4574°
Arg perigee
160.2613°
Mean anomaly
232.9786°
Rev number
66,256

§ Raw data

UNKNOWN1 87426U          26261.11605598  .00002241  00000+0  85497-3 0  99932 87426  65.7824 295.4574 0056055 160.2613 232.9786 14.31903938662560

JSON: /api/v1/satellites/87426 · /tle

For live sub-satellite position, see the globe view (requires WebGL).

§ Visibility from observer

Set your observer location to see the next 7 days of passes ≥ 10°. The values pass through the URL so the page stays shareable.

No JS? Fill the form by hand. The geolocation button needs JavaScript.